Content
SEND FEEDBACK

Daily
Averages
Monthly
Summary
United States of America

HONOLULU - HALA TERRACE, HAWAII


Home > North America > United States > Hawaii
Elevation: 80 feet     Latitude: 21 18N     Longitude: 157 49W

WEATHER
 
SELECT A DAY
Number of Records: 177,846;   Date Range: 1/1/95 - 7/29/14
 
SHARE

PRINT THIS DATA

[ ← Previous Day ]
WEATHER ALMANAC - FEBRUARY 13, 2013
[ Next Day → ]
[ °C ]   °F
Weather ElementAverageHighLow
Temperature73.1 °F79 °F (1:53 pm)68 °F (5:53 am)
Dewpoint55.1 °F57 °F (6:53 pm)52 °F (5:53 am)
Humidity53.6 %63 % (3:53 am)42 % (10:53 am)
Barometer30.10 in30.15 in (9:53 am)30.02 in (3:53 pm)
Wind Speed8.6 mph16.1 mph (1:53 pm)
Wind Gust24.2 mph (1:53 pm)
Weather ElementAverage
Visibility9.7 mi
Wind DirectionNE (40.8 °)

Weather ElementTotal
Precipitation---
Cooling Degree Days8.5 (Base 65)
Growing Degree Days23.5 (Base 50)
Averaged from 25 records on February 13, 2013
WEATHER CONDITIONS BREAKOUT
WIND DIRECTION BREAKOUT
WEATHER BY HOUR - FEBRUARY 13, 2013
[ °C ]   °F
Local TimeTemperatureDewpointHumidityBarometerVisibilityWind DirectionWind SpeedGust SpeedPrecipitationEventsConditions
1:53 AM71.1 °F55.9 °F59 %30.13 in10.0 miNE (50°)6.9 mphMostly Cloudy
2:53 AM70.0 °F55.9 °F61 %30.10 in10.0 miENE (60°)8.1 mphMostly Cloudy
3:53 AM69.1 °F55.9 °F63 %30.09 in10.0 miVariable3.5 mphOvercast
4:53 AM69.1 °F55.0 °F61 %30.09 in10.0 miNE (50°)6.9 mphMostly Cloudy
5:53 AM68.0 °F52.0 °F56 %30.09 in10.0 miVariable5.8 mphScattered Clouds
6:53 AM69.1 °F52.0 °F54 %30.10 in10.0 miCalmMostly Cloudy
7:53 AM71.1 °F53.1 °F53 %30.12 in10.0 miNE (50°)10.4 mph19.6 mphScattered Clouds
8:53 AM72.0 °F55.9 °F57 %30.14 in10.0 miNNE (20°)8.1 mphMostly Cloudy
9:53 AM72.0 °F55.9 °F57 %30.15 in10.0 miNE (50°)6.9 mphMostly Cloudy
10:53 AM78.1 °F53.1 °F42 %30.13 in10.0 miNE (50°)10.4 mphMostly Cloudy
11:10 AM78.8 °F55.4 °F44 %30.12 in2.0 miNE (40°)9.2 mph20.7 mphHaze
11:12 AM78.8 °F55.4 °F44 %30.12 in10.0 miNE (40°)9.2 mphScattered Clouds
11:53 AM75.9 °F53.1 °F45 %30.11 in10.0 miNE (50°)12.7 mphScattered Clouds
12:53 PM78.1 °F55.0 °F45 %30.09 in10.0 miNE (40°)13.8 mph23.0 mphScattered Clouds
1:53 PM79.0 °F54.0 °F42 %30.06 in10.0 miNE (50°)16.1 mph24.2 mphScattered Clouds
2:53 PM77.0 °F54.0 °F45 %30.04 in10.0 miENE (60°)8.1 mph20.7 mphScattered Clouds
3:53 PM75.9 °F55.0 °F48 %30.02 in10.0 miENE (60°)9.2 mphMostly Cloudy
4:53 PM75.0 °F54.0 °F48 %30.04 in10.0 miENE (70°)15.0 mphMostly Cloudy
5:53 PM73.0 °F55.9 °F55 %30.05 in10.0 miENE (70°)15.0 mphMostly Cloudy
6:53 PM72.0 °F57.0 °F59 %30.07 in10.0 miNE (40°)10.4 mphMostly Cloudy
7:53 PM72.0 °F55.9 °F57 %30.09 in10.0 miNNE (20°)5.8 mphMostly Cloudy
8:53 PM70.0 °F57.0 °F63 %30.11 in10.0 miNE (40°)5.8 mphMostly Cloudy
9:53 PM70.0 °F57.0 °F63 %30.12 in10.0 miNE (40°)6.9 mphMostly Cloudy
10:53 PM71.1 °F55.9 °F59 %30.11 in10.0 miNE (40°)4.6 mphMostly Cloudy
11:53 PM71.1 °F57.0 °F61 %30.10 in10.0 miNNE (30°)6.9 mphMostly Cloudy
Hourly data recorded from PHNL, located miles away from Honolulu - Hala Terrace, Hawaii







STORIES FROM OUR PARTNERS